Starlink 1557

operational
NORAD ID: 46034 Int'l Des: 2020-055 Owner: SPXS Country: US Constellation: starlink
LEOCIRCULARSTARLINK_TYPE

About Starlink 1557

Description loading...

Live Position

Loading 3D Globe...

Upcoming Passes

Altitude History

Altitude vs Time

uPlot chart will show altitude changes over time

Two-Line Element Set

1 46034U 20055H 26036.03095391 .00000355 00000-0 42770-4 0 9993
2 46034 53.0525 273.2209 0002221 118.1276 241.9938 15.06376432303949
Epoch: Feb 5, 2026 • Age: 17 hours

Current Status

Altitude 556.9 km
Velocity 7.58 km/s
Sub-Earth Point -27.62°S, 160.5°W
Launch Date Aug 7, 2020
Age 5.4 years
Type internet

Technical Details

Classification Payload
Mass 260.00 kg
Dry Mass 248.00 kg
Total Mass 260.00 kg
Length 0.20 m
Diameter 2.80 m
Span 9.00 m
Shape Box + pan
Manufacturer SPXS
Bus Type Starlink
Phase Status In Orbit
Owner/State SPXS/US

Large Constellations

Loading constellations...